Terminal Aerodrome Forecast
Issued by NWS Blacksburg, VA

Home | Current Version | Previous Version | Text Only | Print | Product List | Glossary On
Versions: 1 2 3 4 5 6 7 8 9 10 11 12 13 14 15 16 17 18 19 20 21 22 23 24 25 26 27 28 29 30
000
FTUS41 KRNK 291140
TAFLYH
TAF
KLYH 291140Z 2912/3012 VRB04KT P6SM SCT150 BKN250
     FM291900 17006KT P6SM -SHRA BKN060 OVC110
     FM292300 19006KT P6SM OVC060
     FM300400 27009KT P6SM SCT050=

USA.gov is the U.S. government's official web portal to all federal, state and local government web resources and services.